Tracking 30009 objects as of 7-Dec-2024
HD Live streaming from Space Station
objects crossing your sky now

STARLINK-31095

Track STARLINK-31095 now!
10-day predictions
STARLINK-31095 is classified as:


NORAD ID: 58683
Int'l Code: 2023-211S
Perigee: 494.6 km
Apogee: 495.8 km
Inclination: 43.0 °
Period: 94.4 minutes
Semi major axis: 6866 km
RCS: Unknown
Launch date: December 29, 2023
Source: United States (US)
Launch site: AIR FORCE EASTERN TEST RANGE (AFETR)
Your satellite tracking list
Your tracking list is empty




NASA's NSSDC Master Catalog

Two Line Element Set (TLE):
1 58683U 23211S   24341.84019104 -.00008782  00000-0 -32641-3 0  9996
2 58683  43.0020 148.2741 0000886 268.6394  91.4356 15.25897093 53744
Source of the keplerian elements: AFSPC